Waarnemingen

Advertentie
Mijn weer
Murcia/Alcantarilla, Spanje (8429): temperatuur & dauwpunt: 19.02.2018 06:00:00 - 25.02.2018 06:00:00 (CET)Murcia/Alcantarilla, Spanje (8429): windsnelheid: 19.02.2018 06:00:00 - 25.02.2018 06:00:00 (CET)Murcia/Alcantarilla, Spanje (8429): windrichting: 19.02.2018 06:00:00 - 25.02.2018 06:00:00 (CET)Murcia/Alcantarilla, Spanje (8429): luchtdruk: 19.02.2018 06:00:00 - 25.02.2018 06:00:00 (CET)Murcia/Alcantarilla, Spanje (8429): zicht: 19.02.2018 06:00:00 - 25.02.2018 06:00:00 (CET)
Datum & Tijd tt [°C] td [°C] ff [km/u] ff [kn] dd ppp [hPa] vv [km]
25.02.2018 06:00:00 - - - - - - -
25.02.2018 05:00:00 - - - - - - -
25.02.2018 04:00:00 - - - - - - -
25.02.2018 03:00:00 - - - - - - -
25.02.2018 02:00:00 - - - - - - -
25.02.2018 01:00:00 - - - - - - -
25.02.2018 00:00:00 - - - - - - -
24.02.2018 23:00:00 - - - - - - -
24.02.2018 22:00:00 - - - - - - -
24.02.2018 21:00:00 - - - - - - -
24.02.2018 20:00:00 - - - - - - -
24.02.2018 19:00:00 12,0 4,5 15 8 ZZO 1008,4 40
24.02.2018 18:00:00 - - - - - - -
24.02.2018 17:00:00 - - - - - - -
24.02.2018 16:00:00 14,6 0,5 5 3 N 1007,5 40
24.02.2018 15:00:00 - - - - - - -
24.02.2018 14:00:00 - - - - - - -
24.02.2018 13:00:00 11,8 0,9 5 3 N 1008,7 25
24.02.2018 12:00:00 - - - - - - -
24.02.2018 11:00:00 - - - - - - -
24.02.2018 10:00:00 5,6 0,4 2 1 N 1009,1 15
24.02.2018 09:00:00 - - - - - - -
24.02.2018 08:00:00 - - - - - - -
24.02.2018 07:00:00 -0,6 -1,7 5 3 ZW 1008,5 30
24.02.2018 06:00:00 - - - - - - -
24.02.2018 05:00:00 - - - - - - -
24.02.2018 04:00:00 - - - - - - -
24.02.2018 03:00:00 - - - - - - -
24.02.2018 02:00:00 - - - - - - -
24.02.2018 01:00:00 - - - - - - -
24.02.2018 00:00:00 - - - - - - -
23.02.2018 23:00:00 - - - - - - -
23.02.2018 22:00:00 - - - - - - -
23.02.2018 21:00:00 - - - - - - -
23.02.2018 20:00:00 - - - - - - -
23.02.2018 19:00:00 10,6 -0,2 13 7 OZO 1007,1 50
23.02.2018 18:00:00 - - - - - - -
23.02.2018 17:00:00 - - - - - - -
23.02.2018 16:00:00 13,0 -15,7 8 4 N 1006,7 50
23.02.2018 15:00:00 - - - - - - -
23.02.2018 14:00:00 - - - - - - -
23.02.2018 13:00:00 11,8 -13,2 13 7 WNW 1007,5 50
23.02.2018 12:00:00 - - - - - - -
23.02.2018 11:00:00 - - - - - - -
23.02.2018 10:00:00 6,8 -11,8 9 5 WNW 1009,0 50
23.02.2018 09:00:00 - - - - - - -
23.02.2018 08:00:00 - - - - - - -
23.02.2018 07:00:00 2,8 -6,1 8 4 ZZW 1008,1 50
23.02.2018 06:00:00 - - - - - - -
23.02.2018 05:00:00 - - - - - - -
23.02.2018 04:00:00 - - - - - - -
23.02.2018 03:00:00 - - - - - - -
23.02.2018 02:00:00 - - - - - - -
23.02.2018 01:00:00 - - - - - - -
23.02.2018 00:00:00 - - - - - - -
22.02.2018 23:00:00 - - - - - - -
22.02.2018 22:00:00 - - - - - - -
22.02.2018 21:00:00 - - - - - - -
22.02.2018 20:00:00 - - - - - - -
22.02.2018 19:00:00 14,4 -8,2 15 8 N 1005,0 50
22.02.2018 18:00:00 - - - - - - -
22.02.2018 17:00:00 - - - - - - -
22.02.2018 16:00:00 15,6 -7,2 15 8 NNO 1004,9 50
22.02.2018 15:00:00 - - - - - - -
22.02.2018 14:00:00 - - - - - - -
22.02.2018 13:00:00 13,0 -1,3 4 2 N 1006,9 50
22.02.2018 12:00:00 - - - - - - -
22.02.2018 11:00:00 - - - - - - -
22.02.2018 10:00:00 9,0 -2,0 13 7 NW 1008,8 50
22.02.2018 09:00:00 - - - - - - -
22.02.2018 08:00:00 - - - - - - -
22.02.2018 07:00:00 4,2 3,2 4 2 N 1008,9 50
22.02.2018 06:00:00 - - - - - - -
22.02.2018 05:00:00 - - - - - - -
22.02.2018 04:00:00 - - - - - - -
22.02.2018 03:00:00 - - - - - - -
22.02.2018 02:00:00 - - - - - - -
22.02.2018 01:00:00 - - - - - - -
22.02.2018 00:00:00 - - - - - - -
21.02.2018 23:00:00 - - - - - - -
21.02.2018 22:00:00 - - - - - - -
21.02.2018 21:00:00 - - - - - - -
21.02.2018 20:00:00 - - - - - - -
21.02.2018 19:00:00 12,6 6,4 22 12 O 1006,6 70
21.02.2018 18:00:00 - - - - - - -
21.02.2018 17:00:00 - - - - - - -
21.02.2018 16:00:00 15,8 0,0 8 4 ONO 1005,1 70
21.02.2018 15:00:00 - - - - - - -
21.02.2018 14:00:00 - - - - - - -
21.02.2018 13:00:00 13,8 0,1 18 10 NNW 1007,5 70
21.02.2018 12:00:00 - - - - - - -
21.02.2018 11:00:00 - - - - - - -
21.02.2018 10:00:00 11,6 0,4 5 3 N 1008,7 70
21.02.2018 09:00:00 - - - - - - -
21.02.2018 08:00:00 - - - - - - -
21.02.2018 07:00:00 10,0 0,1 8 4 W 1009,4 70
21.02.2018 06:00:00 - - - - - - -
21.02.2018 05:00:00 - - - - - - -
21.02.2018 04:00:00 - - - - - - -
21.02.2018 03:00:00 - - - - - - -
21.02.2018 02:00:00 - - - - - - -
21.02.2018 01:00:00 - - - - - - -
21.02.2018 00:00:00 - - - - - - -
20.02.2018 23:00:00 - - - - - - -
20.02.2018 22:00:00 - - - - - - -
20.02.2018 21:00:00 - - - - - - -
20.02.2018 20:00:00 - - - - - - -
20.02.2018 19:00:00 18,8 3,4 15 8 NW 1011,6 50
20.02.2018 18:00:00 - - - - - - -
20.02.2018 17:00:00 - - - - - - -
20.02.2018 16:00:00 20,8 3,1 18 10 WNW 1012,2 50
20.02.2018 15:00:00 - - - - - - -
20.02.2018 14:00:00 - - - - - - -
20.02.2018 13:00:00 - - - - - - -
20.02.2018 12:00:00 - - - - - - -
20.02.2018 11:00:00 - - - - - - -
20.02.2018 10:00:00 14,2 5,8 9 5 NW 1015,9 50
20.02.2018 09:00:00 - - - - - - -
20.02.2018 08:00:00 - - - - - - -
20.02.2018 07:00:00 6,6 5,7 4 2 ZW 1015,9 40
20.02.2018 06:00:00 - - - - - - -
20.02.2018 05:00:00 - - - - - - -
20.02.2018 04:00:00 - - - - - - -
20.02.2018 03:00:00 - - - - - - -
20.02.2018 02:00:00 - - - - - - -
20.02.2018 01:00:00 - - - - - - -
20.02.2018 00:00:00 - - - - - - -
19.02.2018 23:00:00 - - - - - - -
19.02.2018 22:00:00 - - - - - - -
19.02.2018 21:00:00 - - - - - - -
19.02.2018 20:00:00 - - - - - - -
19.02.2018 19:00:00 14,6 9,2 11 6 ZZO 1016,8 50
19.02.2018 18:00:00 - - - - - - -
19.02.2018 17:00:00 - - - - - - -
19.02.2018 16:00:00 18,2 1,3 8 4 NNO 1016,4 50
19.02.2018 15:00:00 - - - - - - -
19.02.2018 14:00:00 - - - - - - -
19.02.2018 13:00:00 16,4 3,8 4 2 N 1018,1 30
19.02.2018 12:00:00 - - - - - - -
19.02.2018 11:00:00 - - - - - - -
19.02.2018 10:00:00 12,2 5,4 9 5 NW 1018,9 20
19.02.2018 09:00:00 - - - - - - -
19.02.2018 08:00:00 - - - - - - -
19.02.2018 07:00:00 11,4 10,3 5 3 W 1018,4 15
19.02.2018 06:00:00 - - - - - - -

tt = temperatuur
td = dauwpunt
ff = windsnelheid
dd = windrichting
ppp = luchtdruk
vv = zicht

Weerstations in de omgeving